Regional Weather Roundup
Issued by NWS

Home | Current Version | Previous Version | Text Only | Print | Product List | Glossary On
Versions: 1 2 3 4 5 6 7 8 9 10 11 12 13 14 15 16 17 18 19 20 21 22 23 24 25 26 27 28 29 30 31 32 33 34 35 36 37 38 39 40 41 42 43 44 45 46 47 48 49 50
000
ASUS43 KMKX 072300
RWRWI

WISCONSIN REGIONAL WEATHER ROUNDUP
NATIONAL WEATHER SERVICE MILWAUKEE/SULLIVAN WI
500 PM CST WED DEC 07 2016

NOTE: "FAIR" INDICATES FEW OR NO CLOUDS BELOW 12,000 FEET WITH NO
SIGNIFICANT WEATHER AND/OR OBSTRUCTIONS TO VISIBILITY.

WIZ001-002-006>008-014>016-023>028-080000-
NORTHWEST WISCONSIN

CITY           SKY/WX    TMP DP  RH WIND       PRES   REMARKS
SUPERIOR ARPT  FLURRIES  21  12  68 W16G24    29.93R WCI   7
ASHLAND        LGT SNOW  19  14  81 SW14G25   29.89R WCI   6
HAYWARD        CLOUDY    18   8  65 W10G22    29.92R WCI   6
SIREN          CLOUDY    19  10  68 W15       29.98R WCI   5
CUMBERLAND     CLOUDY    19  10  68 W17G26    29.96R WCI   4
RICE LAKE      MOCLDY    19  11  70 W14       29.99R WCI   6
CHETEK         MOCLDY    19  10  70 W7        29.99R WCI   9
LADYSMITH      FLURRIES  20  13  73 W14       29.96R WCI   7
EAU CLAIRE     NOT AVBL
MENOMONIE      FLURRIES  20  12  71 W15       30.03S WCI   6
NEW RICHMOND   MOCLDY    18   9  67 W16G28    30.03R WCI   4
OSCEOLA        MOCLDY    19  10  67 W13       30.07R WCI   7
$$

WIZ003>005-009-010-017-018-080000-
NORTH CENTRAL WISCONSIN

CITY           SKY/WX    TMP DP  RH WIND       PRES   REMARKS
MANITOWISH WTR LGT SNOW  17  12  84 W13G18    29.82R WCI   3
ARBOR VITAE    FLURRIES  19  13  77 W14G20    29.83R WCI   6
WOODRUFF       FLURRIES  19  13  77 W14G20    29.83R WCI   6
RHINELANDER    CLOUDY    19  13  77 W16G26    29.85R WCI   4
EAGLE RIVER    LGT SNOW  18  11  73 W16G22    29.81R WCI   4
LAND O LAKES   LGT SNOW  18  13  79 W12G22    29.81R WCI   6
PHILLIPS       CLOUDY    18  11  77 SW10G17   29.87R WCI   6
TOMAHAWK       FLURRIES  18  11  75 W9G18     29.89R WCI   7
MEDFORD        FLURRIES  18  11  74 W20G26    29.91S WCI   1
MERRILL        FLURRIES  19  13  77 W15G21    29.91R WCI   5
$$

WIZ029-030-035-036-043>047-080000-
CENTRAL WISCONSIN

CITY           SKY/WX    TMP DP  RH WIND       PRES   REMARKS
WAUSAU         FLURRIES  19  12  74 W18G30    29.93R WCI   4
MOSINEE        CLOUDY    19  12  73 W17G23    29.95R WCI   4
MARSHFIELD     CLOUDY    19  11  70 W20G31    29.96R WCI   3
STEVENS POINT  CLOUDY    19  11  70 W17G23    29.96S WCI   4
WAUPACA        CLOUDY    25  15  65 SW15G21   29.98R WCI  12
WAUTOMA        FLURRIES  21  13  71 W17G23    30.02R WCI   7
WISC RAPIDS    CLOUDY    20  13  74 W14       30.01R WCI   7
CAMP DOUGLAS   CLOUDY    19  12  73 W15       30.04R WCI   5
$$

WIZ011>013-019>022-031-037>040-048>050-080000-
NORTHEAST WISCONSIN

CITY           SKY/WX    TMP DP  RH WIND       PRES   REMARKS
ANTIGO         FLURRIES  17  12  81 W17       29.87S WCI   2
SHAWANO        MOCLDY    25  14  63 W10G22    29.94R WCI  15
OCONTO         PTCLDY    24  13  64 W12G23    29.92R WCI  12
STURGEON BAY   CLOUDY    25  15  66 W20G25    29.91R WCI  11
GREEN BAY      CLOUDY    26  16  65 W14G22    29.96R WCI  14
MANITOWOC      NOT AVBL
APPLETON       CLOUDY    23  12  63 W16       29.95R WCI  10
CLINTONVILLE   CLOUDY    23  12  63 W21G28    29.95R WCI   8
OSHKOSH        CLOUDY    22  14  71 W12       29.99R WCI  10
$$

WIZ032>034-041-042-053>061-080000-
SOUTHWEST WISCONSIN

CITY           SKY/WX    TMP DP  RH WIND       PRES   REMARKS
LA CROSSE      CLOUDY    22  12  65 W14       30.12R WCI   9
SPARTA         LGT SNOW  21  14  75 W10G20    30.07R WCI   9
VIROQUA        CLOUDY    18  13  80 W13       30.07R WCI   5
BOSCOBEL       CLOUDY    22  13  68 W9        30.14R WCI  12
PRAIRIE DU CHI FLURRIES  22  13  69 W12       30.16R WCI  11
PLATTEVILLE    CLOUDY    20  15  80 W21       30.14R WCI   4
$$

WIZ056-057-062-063-064-067-068-080000-
SOUTH CENTRAL WISCONSIN

CITY           SKY/WX    TMP DP  RH WIND       PRES   REMARKS
REEDSBURG      CLOUDY    19  12  73 W13       30.06R WCI   7
BARABOO/DELLS  CLOUDY    19  11  70 W14G22    30.05R WCI   6
LONE ROCK      NOT AVBL
MINERAL POINT  FLURRIES  21  18  86 W14G21    30.10R WCI   8
MADISON        CLOUDY    20  12  71 W8G18     30.07R WCI  10
MIDDLETON      CLOUDY    22  15  74 W12       30.08R WCI  10
WATERTOWN      CLOUDY    20  14  78 SW15      30.05R WCI   7
MONROE         CLOUDY    19  14  79 W23G29    30.09R WCI   2
JANESVILLE     CLOUDY    21  16  79 W14G20    30.10R WCI   8
$$

WIZ051-052-058>065-066-070>072-080000-
SOUTHEAST WISCONSIN

CITY           SKY/WX    TMP DP  RH WIND       PRES   REMARKS
MILWAUKEE      MOCLDY    25  14  63 W15       30.05R WCI  13
WAUKESHA       MOCLDY    19  12  73 W14       30.05R WCI   6
MILWAUKEE/TIMM NOT AVBL
RACINE         PTCLDY    24  15  68 W15G23    30.07R WCI  11
BURLINGTON     PTCLDY    22  15  75 W15       30.07R WCI   8
KENOSHA        PTCLDY    24  16  71 W16       30.06R WCI  11
FOND DU LAC    CLOUDY    22  12  65 W10       30.01R WCI  11
SHEBOYGAN      MOCLDY    22  13  68 W12G26    30.00R WCI  10
WEST BEND      PTCLDY    21  16  79 W14       30.01R WCI   8
JUNEAU         CLEAR     19  13  76 SW13      30.04R WCI   6
$$

LSZ147-162-080000-
LAKE SUPERIOR

STATION/POSITION TIME  TEMP    WIND        PRES    WAVE
                       AIR SEA DIR/SP/G            HT/PER
                 (UTC) (F)     (DEG/KT/KT) (MB)    (FT/S)
DEVILS ISLAND    2200   26     250/ 32/ 43 1010.3R
PORT WING        2240   22     220/ 13/ 19 1012.5R
SAXON HARBOR     2230   20     230/ 10/ 17 1011.9R
$$

LMZ867-665-643>646-080000-
LAKE MICHIGAN

STATION/POSITION TIME  TEMP    WIND        PRES    WAVE
                       AIR SEA DIR/SP/G            HT/PER
                 (UTC) (F)     (DEG/KT/KT) (MB)    (FT/S)
CHAMBERS ISLAND  2240   25     240/ 10/ 20 1011.9R
NORTHPORT PIER   2240   26     270/  6/ 18 1011.9R
SISTER BAY       2223   27     300/ 23/ 27   N/A
ALGOMA LAKESHORE 2151          270/ 15/ 24   N/A
KEWAUNEE LAKESHO 2224   25     260/ 15/ 18 1013.2
SHEBOYGAN LAKESH 2200   24     250/ 16/ 22 1016.2R
PORT WASHINGTON  2240   24     270/ 10/ 16 1017.6R
MILWAUKEE LAKESH 2230   24     260/ 19/ 26   N/A
KENOSHA   LAKESH 2200   27     250/ 12/ 20 1017.9
$$

TC  - TEMPERATURE IN CELSIUS
VSB - VISIBILITY IN STATUTE MILES
WCI - WIND CHILL INDEX
HX  - HEAT INDEX





USA.gov is the U.S. government's official web portal to all federal, state and local government web resources and services.